arxmliv
arxmliv build tool
 
KWARC group
LaTeXML
About
   
 

Detailed info

Back to Homepage

List of missing_macros

No. Date Filename num_warningnum_errornum_xmargok_xmargnum_xmathok_xmathMissing macros
134801 2013-03-05 11:20:42 /0407/math.0407463 10110000[@ ].
134802 2013-03-05 11:20:25 /0407/math.0407494 3510000[@ ].
134803 2013-03-05 11:20:22 /0407/math.0407509 3930000[\node, \arrow, {diagram}].
134804 2013-03-05 11:19:43 /0407/math.0407490 1510000[\ltimes].
134805 2013-03-05 11:19:29 /0407/math.0407459 8210000[\AuteurCourant, \Acknowledgements, \FirstPage, \ComParit, \AFv, \address, \Journal, \PXMA, \SousRubrique, {Resume}, \Year, \PIT, \Rubrique, \Volume, \TitreCourant, {Ftitle}, {Abstract}, \LastPage, \Add, \PresentePar, \Recu].
134806 2013-03-05 11:19:10 /0407/math.0407462 250000[Align, \xymatrix, \varotimes, \ar]; 1 missing file[xy.sty].
134807 2013-03-05 11:19:06 /0407/math.0407504 2610000[\fancyplain].
134808 2013-03-05 11:18:48 /0407/math.0407461 1740000[\psfrag, \geometry, \CompileMatrices]; 1 missing file[xy.sty].
134809 2013-03-05 11:18:35 /0407/math.0407482 3710000[\url].
134810 2013-03-05 11:18:09 /0407/math.0407474 330000[\topmargin, \textheight, \textwidth].
134811 2013-03-05 11:16:42 /0407/math.0407451 5210000[\cd].
134812 2013-03-05 11:16:33 /0407/math.0407427 30510000[{comment}].
134813 2013-03-05 11:15:52 /0407/math.0407445 4100000[\CompileMatrices]; 9 missing files[xycurve.sty, xymatrix.sty, xyline.sty, xyarrow.sty, xycmtip.sty, xycolor.sty, xyrotate.sty, xyframe.sty, xygraph.sty].
134814 2013-03-05 11:15:49 /0407/math.0407438 15340000[\theurl, \address, \thekeywords, \plotsymbolspacing, \setplotsymbol, \!picbox, \thetitle, \keywords, \theabstract, \secondaryclass, \gtref, \primaryclass, \authors, \qua, \nl, \!xleft, \arxiv, \theaddress, \stdspace, \circulararc, \setcoordinatesystem, \
134815 2013-03-05 11:15:41 /0407/math.0407436 34380000[\rTo, \ldOnto, \dOnto, \dTo, \thanksref, {defn}, {lem}, {thm}, {cor}, {prop}, {exmp}, {pf}, Align, {rem}, \rOnto, {frontmatter}, {diagram}].
134816 2013-03-05 11:14:51 /0407/math.0407428 1910000[{comment}].
134817 2013-03-05 11:14:27 /0407/math.0407387 11230000[\subjclass, \email, \keywords].
134818 2013-03-05 11:14:27 /0407/math.0407412 9440000[\Blue, \Magenta]; 1 missing file[colordvi.sty].
134819 2013-03-05 11:14:20 /0407/math.0407418 2130000[\dottedline, \multiputlist, \drawline].
134820 2013-03-05 11:13:54 /0407/math.0407371 552610000[\UseAllTwocells, Align, \xymatrix, \newdir, \theparentequation, \UsePSspecials, \ar]; 1 missing file[xy.sty].
134821 2013-03-05 11:13:53 /0407/math.0407420 2200000[\qua, \nl, \stdspace, \address, \email, \agtref, \Addresses, \thekeywords, \theauthors, \agt, \MR, \keywords, \thetitle, \theprimaryclass, \thesecondaryclass, \theabstract, \secondaryclass, \gtref, \primaryclass, \authors].
134822 2013-03-05 11:13:52 /0407/math.0407421 12050000[\\, \title, \author].
134823 2013-03-05 11:13:45 /0407/math.0407422 020000[\Tetra, \Didi].
134824 2013-03-05 11:13:38 /0407/math.0407413 140000[\extrasenglish, {comment}, \dateenglish, \captionsenglish].
134825 2013-03-05 11:13:24 /0407/math.0407406 55170000[\psfrag].
134826 2013-03-05 11:12:37 /0407/math.0407395 1610000[\goth].
134827 2013-03-05 11:11:02 /0407/math.0407379 050000[\extrasenglish, \og, \fg, \dateenglish, \captionsenglish].
134828 2013-03-05 11:10:53 /0407/math.0407381 250000[\extrasenglish, \og, \fg, \dateenglish, \captionsenglish].
134829 2013-03-05 11:10:49 /0407/math.0407380 050000[\extrasenglish, \og, \fg, \dateenglish, \captionsenglish].
134830 2013-03-05 11:10:02 /0407/math.0407390 1030000[Align, \xymatrix, \ar].
134831 2013-03-05 11:09:41 /0407/math.0407386 10260000[\xymatrix, \ar]; 1 missing file[xy.sty].
134832 2013-03-05 11:09:32 /0407/math.0407392 710000[\subfiguretopcaptrue].
134833 2013-03-05 11:08:16 /0407/math.0407345 10840000[Align, \xymatrix, \ar]; 1 missing file[xy.sty].
134834 2013-03-05 11:07:40 /0407/math.0407354 487460000[\@open@row].
134835 2013-03-05 11:07:39 /0407/math.0407330 21610000[{acknowledgements}].
134836 2013-03-05 11:07:26 /0407/math.0407334 2830000[Align, \xymatrix, \ar].
134837 2013-03-05 11:07:13 /0407/math.0407360 29790000[\ZZ, {lemma}, \RepCM, \Out, \Artin, \bQ, \CC, \End, \Gal, \cG, \tmu, \tih, \AH, Align, \wtI, \ab, \Gm, \bQp, \et, \wtW, \Cl, \der, \cC, \id, \CM, \ar, \wtFr, \Spec, \rH, \Hom, \wtV, \trho, \Cp, \ad, \Aut, \dash, \GL, \Hodge, \Conj, \pr, \Mot, \Fr, \RR, \
134838 2013-03-05 11:06:32 /0407/math.0407343 340000[Align, \xymatrix, \ar]; 1 missing file[xy.sty].
134839 2013-03-05 11:06:07 /0407/math.0407362 290000[\xymatrix, \keywords, \secondaryclass, Align, \secondemail, \primaryclass, \maketitlepage, \ar]; 1 missing file[xy.sty].
134840 2013-03-05 11:05:35 /0407/math.0407338 540000[Align, \xymatrix, \ar]; 1 missing file[xy.sty].
134841 2013-03-05 11:05:35 /0407/math.0407350 980000[\drawdim, \centertexdraw, \avec, \lvec, \htext, \linewd, \move, \lpatt].
134842 2013-03-05 11:05:24 /0407/math.0407340 030000[\extrasenglish, \dateenglish, \captionsenglish].
134843 2013-03-05 11:05:24 /0407/math.0407356 210000[{@proof}].
134844 2013-03-05 11:05:21 /0407/math.0407351 720000[\AAAsubmitted, \AAApage].
134845 2013-03-05 11:05:14 /0407/math.0407339 030000[\extrasenglish, \dateenglish, \captionsenglish].
134846 2013-03-05 11:05:11 /0407/math.0407341 030000[\extrasenglish, \dateenglish, \captionsenglish].
134847 2013-03-05 10:59:55 /0407/math.0407215 173120000[\affil, \ack, \startingpage, \theoremstyle, \appendices, \volume, \yearofpublication, \titleheadline, \authorheadline, \revised, {proof}, \received].
134848 2013-03-05 10:59:51 /0407/math.0407324 2840000[Align, \xymatrix, \ar]; 1 missing file[xy.sty].
134849 2013-03-05 10:59:28 /0407/math.0407219 100180000[{lemma}, {theorem}, \inst, {example}, \email, \psfrag, {remark}, \titlerunning, {proposition}, \institute, \qed, \keywords, {definition}, {corollary}, {proof}, {acknowledgement}, \spnewtheorem, {assumption}]; 1 missing file[bcr-svjour.cls].
134850 2013-03-05 10:59:04 /0407/math.0407200 135930000[\weakN, \N, \nBall, \Thmref, {Cor}, \gv, \U, {numList}, \Wnball, {Def}, \aip, \Estar, \Vnball, \gt, \rB, \sfield, \bN, \e, \sB, \rweakS, \B, \Lemmaref, \Fnk, \dstrongN, \CNS, \norm, \Ep, \weakNV, \bstrongnN, \weaknN, \rN, {romanList}, {Notation}, \mBall,
134851 2013-03-05 10:58:49 /0407/math.0407257 123820000[\transp, \CarP, \dessmuLpoly, \eps, \Matr, \GGG, \dessCN, \Id, \dessmuTpolyb, \deux, \txi, \comp, \CC, \egaldef, \QQQ, \Xbar, \AAA, \Pbf, \sslash, \EEE, \XXX, \rx, {exemples}, \SCarP, \un, {theo}, \Bv, \PPP, \dans, \Bbf, \dessCS, \detg, \Melrose, \dessin
134852 2013-03-05 10:58:22 /0407/math.0407314 1040000[Align, \xymatrix, \ar]; 1 missing file[xy.sty].
134853 2013-03-05 10:57:57 /0407/math.0407205 7350000[Align, \xyoption, \xymatrix, \ar]; 1 missing file[xy.sty].
134854 2013-03-05 10:57:54 /0407/math.0407209 3950000[Align, \dto, \xymatrix, \ar]; 1 missing file[xy.sty].
134855 2013-03-05 10:57:45 /0407/math.0407227 4170000[Align, \xymatrix, \ar]; 2 missing files[portland.sty, xy.sty].
134856 2013-03-05 10:57:41 /0407/math.0407294 4320000[\@ifnotempty, \@ifempty].
134857 2013-03-05 10:57:18 /0407/math.0407247 10550000[\enddiagram, Align, \diagram, \ar]; 1 missing file[xy.sty].
134858 2013-03-05 10:57:13 /0407/math.0407150 8440000[Align, \xymatrix, \ar]; 1 missing file[xy.sty].
134859 2013-03-05 10:57:07 /0407/math.0407172 6320000[\qua, \co, \nl, \theurl, \!xleft, \arxiv, \stdspace, \theaddress, \urladdr, \address, \circulararc, \email, \setcoordinatesystem, \thekeywords, \theauthors, \plotsymbolspacing, \!ybot, \MR, \setplotsymbol, \theemail, \!picbox, \thesecondaryclass, \thepri
134860 2013-03-05 10:57:00 /0407/math.0407237 49110000[\dlto, \xto, \diagram, \xymatrix, \enddiagram, Align, @ , \ddto, \rrto, \ar]; 1 missing file[xy.sty].
134861 2013-03-05 10:56:57 /0407/math.0407180 9570000[\thm@postskip, Align, @ , \xymatrix, \thm@preskip, \ar]; 1 missing file[xy.sty].
134862 2013-03-05 10:56:46 /0407/math.0407312 43450000[\Intermediate, {lemma}, {theorem}, \Remainder, \n, \q, \GrowthOrder, \Argument, {bibsection}, {proposition}, \WordGrowthSemigroup, \Length, \Divider, \Semigroup, \EndFinite, \EndLevels, \PositiveInteger, \GrowthAutomaton, \InfiniteSet, \GrowthSemigroup,
134863 2013-03-05 10:55:57 /0407/math.0407299 12220000[\qua, \nl, \arxiv, \theaddress, \stdspace, \address, \email, \agtref, \thekeywords, \theauthors, \agt, \MR, \theemail, \keywords, \thetitle, \theprimaryclass, \thesecondaryclass, \theabstract, \secondaryclass, \gtref, \primaryclass].
134864 2013-03-05 10:55:54 /0407/math.0407225 117110000[\Cof, {comment}, \gw].
134865 2013-03-05 10:55:36 /0407/math.0407280 0160000[{\bib}].
134866 2013-03-05 10:55:35 /0407/math.0407161 2560000[\relabel, \endrelabelbox, \adjustrelabel, \extralabel, \relabelbox].
134867 2013-03-05 10:55:34 /0407/math.0407203 72320000[\co, \nl, \qua, \theurl, \!xleft, \arxiv, \stdspace, \theaddress, \address, \circulararc, \setcoordinatesystem, \thekeywords, \theauthors, \plotsymbolspacing, \!ybot, \MR, \mailto, \setplotsymbol, \theemail, \!picbox, \thesecondaryclass, \theprimaryclass
134868 2013-03-05 10:55:30 /0407/math.0407152 12100000[Align, \xymatrix, \ar]; 1 missing file[xy.sty].
134869 2013-03-05 10:55:28 /0407/math.0407211 11480000[\qua, \nl, \arxiv, \stdspace, \address, \email, \agtref, \Addresses, \psfrag, \thekeywords, \theauthors, \agt, \MR, \keywords, \thetitle, \theprimaryclass, \thesecondaryclass, \theabstract, \secondaryclass, \gtref, \primaryclass, \cl].
134870 2013-03-05 10:55:23 /0407/math.0407156 13120000[Align, \xymatrix, \ar]; 9 missing files[xycurve.sty, xymatrix.sty, xyline.sty, xyarrow.sty, xycmtip.sty, xycolor.sty, xyrotate.sty, xyframe.sty, xygraph.sty].
134871 2013-03-05 10:55:23 /0407/math.0407218 23170000[Align, \smalltableau, \xymatrix, \ar]; 1 missing file[xy.sty].
134872 2013-03-05 10:55:14 /0407/math.0407244 3430000[\Wedge].
134873 2013-03-05 10:55:12 /0407/math.0407251 9320000[Align, {xy}, \xymatrix, \ar]; 1 missing file[xy.sty].
134874 2013-03-05 10:54:54 /0407/math.0407303 1940000[\thetheorem, \numberbysection].
134875 2013-03-05 10:54:49 /0407/math.0407293 4460000[Align, \SelectTips, \xymatrix, \newdir, \ar]; 1 missing file[xy.sty].
134876 2013-03-05 10:54:43 /0407/math.0407157 27130000[Align, \xymatrix, \hole, \ar]; 9 missing files[xycurve.sty, xymatrix.sty, xyline.sty, xyarrow.sty, xycmtip.sty, xycolor.sty, xyrotate.sty, xyframe.sty, xygraph.sty].
134877 2013-03-05 10:54:43 /0407/math.0407246 95270000[{@proof}].
134878 2013-03-05 10:54:20 /0407/math.0407296 3640000[\thechapter, \@currentID, \dedication, \acknowledgements]; 1 missing file[puthesis_onarxiv.cls].
134879 2013-03-05 10:54:15 /0407/math.0407327 14250000[Align, \restore, \save, \xymatrix, \ar]; 9 missing files[xycurve.sty, xymatrix.sty, xyline.sty, xyarrow.sty, xycmtip.sty, xycolor.sty, xyrotate.sty, xyframe.sty, xygraph.sty].
134880 2013-03-05 10:54:13 /0407/math.0407249 1490000[\uline, \urline, \diagram, Align, \enddiagram, \eightpoint, \ar, \ulline]; 1 missing file[xy.sty].
134881 2013-03-05 10:54:11 /0407/math.0407243 1350000[Align, \xyoption, \xymatrix, \ar]; 1 missing file[xy.sty].
134882 2013-03-05 10:54:03 /0407/math.0407242 38280000[\dTo, Align, \lTo, \rTo, {diagram}]; 1 missing file[diagrams].
134883 2013-03-05 10:53:54 /0407/math.0407307 41150000[Align, \xymatrix, \ar, \setmarginsrb]; 9 missing files[xycurve.sty, xymatrix.sty, xyline.sty, xyarrow.sty, xycmtip.sty, xycolor.sty, xyrotate.sty, xyframe.sty, xygraph.sty].
134884 2013-03-05 10:53:52 /0407/math.0407162 35040000[Align, \xymatrix]; 1 missing file[xy.sty].
134885 2013-03-05 10:53:52 /0407/math.0407305 950000[\endxy, Align, \cir, \xy]; 1 missing file[xy.sty].
134886 2013-03-05 10:53:19 /0407/math.0407198 2340000[Align, \xymatrix, \ar]; 1 missing file[xy.sty].
134887 2013-03-05 10:53:16 /0407/math.0407155 2840000[Align, \xymatrix, \ar]; 1 missing file[xy.sty].
134888 2013-03-05 10:53:11 /0407/math.0407326 6270000[{\bib}].
134889 2013-03-05 10:52:58 /0407/math.0407278 1410000[{comment}].
134890 2013-03-05 10:52:54 /0407/math.0407197 2310000[\psfrag].
134891 2013-03-05 10:52:54 /0407/math.0407286 1540000[{acknowledgment}, \mathinner, {proof}, \keywords].
134892 2013-03-05 10:52:51 /0407/math.0407323 1230000[\UseAllTwocells, \SilentMatrices]; 1 missing file[xy.sty].
134893 2013-03-05 10:52:35 /0407/math.0407177 350000[\topmargin, \setlength, \evensidemargin, \markright, \oddsidemargin].
134894 2013-03-05 10:52:34 /0407/math.0407274 610000[{pf*}].
134895 2013-03-05 10:52:32 /0407/math.0407226 2350000[\xymatrixcolsep, \dir, \newdir, \xymatrixrowsep]; 1 missing file[xy.sty].
134896 2013-03-05 10:52:08 /0407/math.0407268 1310000[\email].
134897 2013-03-05 10:52:06 /0407/math.0407153 920000[\appendixpage, \addappheadtotoc].
134898 2013-03-05 10:51:58 /0407/math.0407212 430000[Align, \xymatrix, \ar].
134899 2013-03-05 10:50:11 /0407/math.0407055 52240000[Align, \xymatrix, \ar]; 1 missing file[xy.sty].
134900 2013-03-05 10:48:44 /0407/math.0407074 29240000[Align, \xymatrix, \ar]; 1 missing file[xy.sty].
134901 2013-03-05 10:48:05 /0407/math.0407095 294120000[Align, \xymatrix, \ar]; 9 missing files[xycurve.sty, xymatrix.sty, xyline.sty, xyarrow.sty, xycmtip.sty, xycolor.sty, xyrotate.sty, xyframe.sty, xygraph.sty].
134902 2013-03-05 10:46:48 /0407/math.0407103 4820000[\rsfs, \mathfont@].
134903 2013-03-05 10:46:41 /0407/math.0407031 124210000[\UseHalfTwocells, \xymatrixcolsep, \UseTwocells, \rrlowertwocell, \ddrtwocell, \textcalligra, \lluppertwocell, \drtwocell, \ddruppertwocell, \ar, \xymatrix, \ltwocell, \xymatrixrowsep, Align, \lllowertwocell, \rruppertwocell, \xtwocell, \ddrrtwocell, \ho
134904 2013-03-05 10:46:31 /0407/math.0407012 4010000[\@settopoint].
134905 2013-03-05 10:46:02 /0407/math.0407077 9170000[\qua, \co, \nl, \stdspace, \address, \email, \Addresses, \thekeywords, \theauthors, \agt, \keywords, \thetitle, \theprimaryclass, \thesecondaryclass, \theabstract, \secondaryclass, \primaryclass].
134906 2013-03-05 10:45:59 /0407/math.0407022 3250000[Align, \xymatrix, \ar]; 1 missing file[xy.sty].
134907 2013-03-05 10:45:59 /0407/math.0407092 21530000[\theappendix, \dottedline, \path].
134908 2013-03-05 10:45:36 /0407/math.0407019 9860000[Align, \SelectTips, \xymatrix, \ar, \CompileMatrices]; 1 missing file[xy.sty].
134909 2013-03-05 10:45:21 /0407/math.0407079 7440000[Align, \xymatrix, \ar]; 1 missing file[xy.sty].
134910 2013-03-05 10:45:09 /0407/math.0407123 730000[Align, \xymatrix, \ar].
134911 2013-03-05 10:45:00 /0407/math.0407030 28190000[\alttitle, {theo}, {lemm}, \urladdr, \email, {altabstract}, \subjclass, {coro}, {defi}, {prop}, {rema}, \keywords, \frontmatter, \dedicatory, {exem}, \NumberTheoremsIn].
134912 2013-03-05 10:44:50 /0407/math.0407021 4750000[Align, \SelectTips, \xymatrix, \ar]; 1 missing file[xy.sty].
134913 2013-03-05 10:44:50 /0407/math.0407135 340000[\theappendix, \ifvtexpdf]; 1 missing file[ifvtex.sty].
134914 2013-03-05 10:44:42 /0407/math.0407082 860000[Align, \xymatrix, \ar]; 1 missing file[xy.sty].
134915 2013-03-05 10:44:35 /0407/math.0407025 2200000[\qua, \nl, \rk, \arxiv, \theaddress, \stdspace, \address, \email, \thekeywords, \theauthors, \agt, \MR, \theemail, \keywords, \thetitle, \theprimaryclass, \thesecondaryclass, \theabstract, \secondaryclass, \primaryclass].
134916 2013-03-05 10:44:19 /0407/math.0407043 020000[\ellipse, \path].
134917 2013-03-05 10:43:58 /0407/math.0407130 1180000[{lemma}, {theorem}, \affiliation, \shortauthor, {corollary}, \amsprimary, \received, {acknowledgements}].
134918 2013-03-05 10:43:50 /0407/math.0407090 11570000[Align, \xymatrix, \ar]; 1 missing file[xy.sty].
134919 2013-03-05 10:43:47 /0407/math.0407108 2140000[Align, \xymatrix, \ar]; 1 missing file[xy.sty].
134920 2013-03-05 10:43:45 /0407/math.0407086 1130000[\urladdr, \email, \keywords].
134921 2013-03-05 10:43:19 /0407/math.0407044 3710000[\ring].
134922 2013-03-05 10:43:17 /0407/math.0407104 3120000[Align, \xymatrix, \ar]; 9 missing files[xycurve.sty, xymatrix.sty, xyline.sty, xyarrow.sty, xycmtip.sty, xycolor.sty, xyrotate.sty, xyframe.sty, xygraph.sty].
134923 2013-03-05 10:43:16 /0407/math.0407091 13810000[\theappendix].
134924 2013-03-05 10:43:16 /0407/math.0407093 090000[\newrmtheorem, \threeem, \qed, {definition}, {affil}, {acknowledge}, {proof}, {biog}].
134925 2013-03-05 10:43:12 /0407/math.0407047 610000[\psfrag].
134926 2013-03-05 10:43:05 /0407/math.0407146 640000[Align, \xymatrix, \ar]; 1 missing file[xy.sty].
134927 2013-03-05 10:42:56 /0407/math.0407011 3310000[\@settopoint].
134928 2013-03-05 10:42:52 /0407/math.0407039 6710000[\psfrag].
134929 2013-03-05 10:42:30 /0407/math.0407102 4710000[\theappendix].
134930 2013-03-05 10:42:23 /0407/math.0407084 7930000[\\, \title, \author].
134931 2013-03-05 10:42:15 /0407/math.0407016 7630000[\pstree, \TR]; 1 missing file[pst-tree.sty].
134932 2013-03-05 10:42:10 /0407/math.0407141 610000[\theappendix].
134933 2013-03-05 10:41:35 /0407/math.0407115 1110000[@ ].
134934 2013-03-05 10:41:32 /0407/math.0407088 1030000[\allsectionsfont, @ ]; 1 missing file[sectsty.sty].
134935 2013-03-05 10:40:51 /0407/math.0407085 9520000[\abstracts]; 1 missing file[ws.sty].
134936 2013-03-05 10:33:29 /0407/math-ph.0407075 234420000[\mathds, \fancyplain, \dottedline, {rotate}, \matrixput]; 1 missing file[boxedminipage.sty].
134937 2013-03-05 10:32:28 /0407/math-ph.0407048 13320000[\dTo, Align, \rTo, {diagram}].
134938 2013-03-05 10:32:22 /0407/hep-th.0407256 3530000[\rest, \bt, \newsymbol].
134939 2013-03-05 10:32:22 /0407/math-ph.0407054 90840000[\diagramstyle, \rTo, {diagram}].
134940 2013-03-05 10:31:36 /0407/math-ph.0407034 3790000[{lemma}, {theorem}, \theoremstyle, \qed, \thetheorem, {comment}, {corollary}, \runningauthor, {remark}].
134941 2013-03-05 10:31:11 /0407/hep-th.0407249 850000[Align, {xy}, \xymatrix, \ar]; 1 missing file[xy.sty].
134942 2013-03-05 10:31:08 /0407/math-ph.0407047 41180000[\@setref, \@esphack, \@bsphack]; 1 missing file[for-arXiv.sty].
134943 2013-03-05 10:31:07 /0407/math-ph.0407076 1280000[Align, \xymatrix, \ar]; 1 missing file[xy.sty].
134944 2013-03-05 10:30:45 /0407/math.0407002 6780000[Align, \xymatrix, \accentset, \geometry, \ar]; 1 missing file[xy.sty].
134945 2013-03-05 10:30:26 /0407/hep-th.0407272 420000[\abstracts]; 1 missing file[ws.sty].
134946 2013-03-05 10:30:18 /0407/math-ph.0407036 1810000[\tint].
134947 2013-03-05 10:30:13 /0407/math-ph.0407009 2310000[\theappendix].
134948 2013-03-05 10:30:05 /0407/math.0407003 1860000[\dequals, \dOnto, Align, \rOnto, \newarrow, {diagram}].
134949 2013-03-05 10:30:01 /0407/math-ph.0407035 1650000[{lemma}, {theorem}, \theoremstyle, \runningauthor, \qed].
134950 2013-03-05 10:29:53 /0407/math-ph.0407060 030000[\extrasenglish, \dateenglish, \captionsenglish].
134951 2013-03-05 10:29:51 /0407/math-ph.0407059 1610000[\bezier].
134952 2013-03-05 10:29:50 /0407/hep-th.0407254 4150000[\endofpaper, \re, \BookTitle, \makeauthorindex, \CopyRight].
134953 2013-03-05 10:26:03 /0407/hep-th.0407207 3930000[\slashed, \psplot]; 2 missing files[parskip.sty, scrartcl.cls].
134954 2013-03-05 10:25:33 /0407/hep-th.0407240 18330000[{sidewaystable}, \mathinner].
134955 2013-03-05 10:24:57 /0407/hep-th.0407232 89110000[\abstracts, \psfrag]; 1 missing file[ws.sty].
134956 2013-03-05 10:24:09 /0407/hep-th.0407216 4220000[\Real, \pa].
134957 2013-03-05 10:23:09 /0407/hep-th.0407183 4610000[\@cite].
134958 2013-03-05 10:23:07 /0407/hep-th.0407186 620000[\addresses, \authors].
134959 2013-03-05 10:23:01 /0407/hep-th.0407179 830000[\implies, \abstracts]; 1 missing file[ws.sty].
134960 2013-03-05 10:22:47 /0407/hep-th.0407181 6200000[\ccode, \catchline, \mathbb, {romanlist}, \psfig, {itemlist}, \tbl, \pub, \keywords, \colrule, \botrule, \toprule]; 1 missing file[ws.sty].
134961 2013-03-05 10:22:37 /0407/hep-th.0407188 030000[\extrasenglish, \dateenglish, \captionsenglish].
134962 2013-03-05 10:13:48 /0407/hep-th.0407076 110000[{centering}].
134963 2013-03-05 10:13:39 /0407/hep-th.0407096 22510000[\mathinner].
134964 2013-03-05 10:13:39 /0407/hep-th.0407123 22120000[\@thanks, {xy}, \save, \xymatrix, \@maketitle, Align, \restore, \@topnum, \dir, \ar]; 1 missing file[xy.sty].
134965 2013-03-05 10:13:23 /0407/hep-th.0407093 2910000[\tag].
134966 2013-03-05 10:12:56 /0407/hep-ph.0407343 22490000[\fmffreeze, {fmffile}, \fmf, \fmftop, \fmfv, \fmfdot, {fmfgraph*}, \fmfleft, \fmfright]; 1 missing file[prelim2e.sty].
134967 2013-03-05 10:12:55 /0407/hep-th.0407082 20130000[Align, \xymatrix, \ar]; 10 missing files[xycurve.sty, xymatrix.sty, xyline.sty, xyarrow.sty, xycmtip.sty, xycolor.sty, xyrotate.sty, xy.sty, xyframe.sty, xygraph.sty].
134968 2013-03-05 10:12:45 /0407/hep-th.0407084 18170000[{fmffile}, {fmfgraph}, \fmf, \fmflabel, \fmfcyclen, {fmffor}, {fmfgraph*}, \fmfleft, \fmfright, \fmfsurroundn].
134969 2013-03-05 10:12:42 /0407/hep-th.0407143 1530000[\pdfbookmark].
134970 2013-03-05 10:11:53 /0407/hep-th.0407126 130000[\extrasenglish, \dateenglish, \captionsenglish].
134971 2013-03-05 10:11:45 /0407/hep-th.0407121 1120000[{theacknowledgments}, \layoutstyle].
134972 2013-03-05 10:11:31 /0407/hep-th.0407047 1610000[\slashed].
134973 2013-03-05 10:07:46 /0407/hep-ph.0407341 142460000[\fmffreeze, {fmffile}, \slashed, \fmf, \midrule, \fmflabel, \fmfbottom, \fmfpoly, \fmftop, \fmfdot, \fmfpen, {fmfgraph*}, \fmfforce, \fmfleft, \fmfright, \toprule, \bottomrule].
134974 2013-03-05 10:05:54 /0407/hep-ph.0407360 2510000[\institute].
134975 2013-03-05 10:05:43 /0407/hep-th.0407003 9420000[\pdfpageheight, \pdfpagewidth].
134976 2013-03-05 10:05:37 /0407/hep-ph.0407321 57130000[\Line, \Photon, \PText, \SetColor, \Vertex, \Text, \COval, \SetWidth, \abstracts, \SetScale, \LongArrow, \CArc, \Gluon].
134977 2013-03-05 10:05:18 /0407/hep-ph.0407348 25120000[\BCirc, \ArrowArc, \Photon, \SetColor, \Text, \LongArrowArcn, \SetScale, \CArc, \LongArrow, \DashArrowArc, \PhotonArc, \LongArrowArc].
134978 2013-03-05 10:04:34 /0407/hep-ph.0407339 10200000[\fmffreeze, {fmffile}, \slashed, \fmf, \fmfv, \fmfipath, \fmfiv, \fmfreuse, {fmfgraph*}, \fmfkeep, \fmfset, \fmfleft, \fmfright, \fmfiset, \fmfi].
134979 2013-03-05 10:04:30 /0407/hep-th.0407027 10610000[\psfrag].
134980 2013-03-05 10:04:22 /0407/hep-th.0407032 3220000[\tprod, \dprod].
134981 2013-03-05 10:03:50 /0407/hep-ph.0407350 2940000[\psfrag, {psfrags}].
134982 2013-03-05 10:03:46 /0407/hep-ph.0407335 4150000[\endofpaper, \re, \BookTitle, \makeauthorindex, \CopyRight].
134983 2013-03-05 10:03:44 /0407/hep-th.0407024 030000[\extrasenglish, \dateenglish, \captionsenglish].
134984 2013-03-05 10:03:43 /0407/hep-th.0407040 030000[\extrasenglish, \dateenglish, \captionsenglish].
134985 2013-03-05 10:03:36 /0407/hep-ph.0407366 080000[\includegraphics, \abstracts].
134986 2013-03-05 10:03:27 /0407/hep-ph.0407315 950000[\onelinecaptionsfalse, \rightleftarrows, \setcaptionmargin, \captionstyle, \geometry].
134987 2013-03-05 10:03:20 /0407/hep-ph.0407340 3140000[\GNUPlotA, \GNUPlotE, \psfrag, \GNUPlotF, \GNUPlotD, \GNUPlotB]; 1 missing file[colordvi.sty].
134988 2013-03-05 10:03:11 /0407/hep-ph.0407345 3120000[\includegraphics, \abstracts].
134989 2013-03-05 10:03:09 /0407/hep-ph.0407365 0220000[\includegraphics, \abstracts].
134990 2013-03-05 10:03:03 /0407/hep-th.0407012 1220000[\refcite]; 1 missing file[ws.sty].
134991 2013-03-05 10:03:00 /0407/hep-ph.0407302 14320000[\psfrag].
134992 2013-03-05 10:03:00 /0407/hep-ph.0407310 1730000[\abstracts, \Title, \makeauthor].
134993 2013-03-05 10:02:58 /0407/hep-ph.0407312 2440000[\Vertex, \Text, \ArrowLine, \DashArrowLine].
134994 2013-03-05 10:02:51 /0407/hep-ph.0407334 030000[\epsfbox, \abstracts, \epsfxsize].
134995 2013-03-05 10:02:44 /0407/hep-ph.0407324 440000[\lesssim, \abstracts, \tbl]; 1 missing file[ws.sty].
134996 2013-03-05 10:02:41 /0407/hep-ph.0407344 010000[\dfrac].
134997 2013-03-05 10:02:37 /0407/hep-ph.0407338 440000[\psfig, \tbl, \keywords]; 1 missing file[ws.sty].
134998 2013-03-05 10:02:26 /0407/hep-ph.0407309 010000[\abstracts].
134999 2013-03-05 10:02:23 /0407/hep-ph.0407367 110000[\abstracts].
135000 2013-03-05 10:02:17 /0407/hep-ph.0407311 110000[\abstracts].
<<< >>>

[0] [200] [400] [600] [800] [1000] [1200] [1400] [1600] [1800] [2000] [2200] [2400] [2600] [2800] [3000] [3200] [3400] [3600] [3800] [4000] [4200] [4400] [4600] [4800] [5000] [5200] [5400] [5600] [5800] [6000] [6200] [6400] [6600] [6800] [7000] [7200] [7400] [7600] [7800] [8000] [8200] [8400] [8600] [8800] [9000] [9200] [9400] [9600] [9800] [10000] [10200] [10400] [10600] [10800] [11000] [11200] [11400] [11600] [11800] [12000] [12200] [12400] [12600] [12800] [13000] [13200] [13400] [13600] [13800] [14000] [14200] [14400] [14600] [14800] [15000] [15200] [15400] [15600] [15800] [16000] [16200] [16400] [16600] [16800] [17000] [17200] [17400] [17600] [17800] [18000] [18200] [18400] [18600] [18800] [19000] [19200] [19400] [19600] [19800] [20000] [20200] [20400] [20600] [20800] [21000] [21200] [21400] [21600] [21800] [22000] [22200] [22400] [22600] [22800] [23000] [23200] [23400] [23600] [23800] [24000] [24200] [24400] [24600] [24800] [25000] [25200] [25400] [25600] [25800] [26000] [26200] [26400] [26600] [26800] [27000] [27200] [27400] [27600] [27800] [28000] [28200] [28400] [28600] [28800] [29000] [29200] [29400] [29600] [29800] [30000] [30200] [30400] [30600] [30800] [31000] [31200] [31400] [31600] [31800] [32000] [32200] [32400] [32600] [32800] [33000] [33200] [33400] [33600] [33800] [34000] [34200] [34400] [34600] [34800] [35000] [35200] [35400] [35600] [35800] [36000] [36200] [36400] [36600] [36800] [37000] [37200] [37400] [37600] [37800] [38000] [38200] [38400] [38600] [38800] [39000] [39200] [39400] [39600] [39800] [40000] [40200] [40400] [40600] [40800] [41000] [41200] [41400] [41600] [41800] [42000] [42200] [42400] [42600] [42800] [43000] [43200] [43400] [43600] [43800] [44000] [44200] [44400] [44600] [44800] [45000] [45200] [45400] [45600] [45800] [46000] [46200] [46400] [46600] [46800] [47000] [47200] [47400] [47600] [47800] [48000] [48200] [48400] [48600] [48800] [49000] [49200] [49400] [49600] [49800] [50000] [50200] [50400] [50600] [50800] [51000] [51200] [51400] [51600] [51800] [52000] [52200] [52400] [52600] [52800] [53000] [53200] [53400] [53600] [53800] [54000] [54200] [54400] [54600] [54800] [55000] [55200] [55400] [55600] [55800] [56000] [56200] [56400] [56600] [56800] [57000] [57200] [57400] [57600] [57800] [58000] [58200] [58400] [58600] [58800] [59000] [59200] [59400] [59600] [59800] [60000] [60200] [60400] [60600] [60800] [61000] [61200] [61400] [61600] [61800] [62000] [62200] [62400] [62600] [62800] [63000] [63200] [63400] [63600] [63800] [64000] [64200] [64400] [64600] [64800] [65000] [65200] [65400] [65600] [65800] [66000] [66200] [66400] [66600] [66800] [67000] [67200] [67400] [67600] [67800] [68000] [68200] [68400] [68600] [68800] [69000] [69200] [69400] [69600] [69800] [70000] [70200] [70400] [70600] [70800] [71000] [71200] [71400] [71600] [71800] [72000] [72200] [72400] [72600] [72800] [73000] [73200] [73400] [73600] [73800] [74000] [74200] [74400] [74600] [74800] [75000] [75200] [75400] [75600] [75800] [76000] [76200] [76400] [76600] [76800] [77000] [77200] [77400] [77600] [77800] [78000] [78200] [78400] [78600] [78800] [79000] [79200] [79400] [79600] [79800] [80000] [80200] [80400] [80600] [80800] [81000] [81200] [81400] [81600] [81800] [82000] [82200] [82400] [82600] [82800] [83000] [83200] [83400] [83600] [83800] [84000] [84200] [84400] [84600] [84800] [85000] [85200] [85400] [85600] [85800] [86000] [86200] [86400] [86600] [86800] [87000] [87200] [87400] [87600] [87800] [88000] [88200] [88400] [88600] [88800] [89000] [89200] [89400] [89600] [89800] [90000] [90200] [90400] [90600] [90800] [91000] [91200] [91400] [91600] [91800] [92000] [92200] [92400] [92600] [92800] [93000] [93200] [93400] [93600] [93800] [94000] [94200] [94400] [94600] [94800] [95000] [95200] [95400] [95600] [95800] [96000] [96200] [96400] [96600] [96800] [97000] [97200] [97400] [97600] [97800] [98000] [98200] [98400] [98600] [98800] [99000] [99200] [99400] [99600] [99800] [100000] [100200] [100400] [100600] [100800] [101000] [101200] [101400] [101600] [101800] [102000] [102200] [102400] [102600] [102800] [103000] [103200] [103400] [103600] [103800] [104000] [104200] [104400] [104600] [104800] [105000] [105200] [105400] [105600] [105800] [106000] [106200] [106400] [106600] [106800] [107000] [107200] [107400] [107600] [107800] [108000] [108200] [108400] [108600] [108800] [109000] [109200] [109400] [109600] [109800] [110000] [110200] [110400] [110600] [110800] [111000] [111200] [111400] [111600] [111800] [112000] [112200] [112400] [112600] [112800] [113000] [113200] [113400] [113600] [113800] [114000] [114200] [114400] [114600] [114800] [115000] [115200] [115400] [115600] [115800] [116000] [116200] [116400] [116600] [116800] [117000] [117200] [117400] [117600] [117800] [118000] [118200] [118400] [118600] [118800] [119000] [119200] [119400] [119600] [119800] [120000] [120200] [120400] [120600] [120800] [121000] [121200] [121400] [121600] [121800] [122000] [122200] [122400] [122600] [122800] [123000] [123200] [123400] [123600] [123800] [124000] [124200] [124400] [124600] [124800] [125000] [125200] [125400] [125600] [125800] [126000] [126200] [126400] [126600] [126800] [127000] [127200] [127400] [127600] [127800] [128000] [128200] [128400] [128600] [128800] [129000] [129200] [129400] [129600] [129800] [130000] [130200] [130400] [130600] [130800] [131000] [131200] [131400] [131600] [131800] [132000] [132200] [132400] [132600] [132800] [133000] [133200] [133400] [133600] [133800] [134000] [134200] [134400] [134600] [134800] [135000] [135200] [135400] [135600] [135800] [136000] [136200] [136400] [136600] [136800] [137000] [137200] [137400] [137600] [137800] [138000] [138200] [138400] [138600] [138800] [139000] [139200] [139400] [139600] [139800] [140000] [140200] [140400] [140600] [140800] [141000] [141200] [141400] [141600] [141800] [142000] [142200] [142400] [142600] [142800] [143000] [143200] [143400] [143600] [143800] [144000] [144200] [144400] [144600] [144800] [145000] [145200] [145400] [145600] [145800] [146000] [146200] [146400] [146600] [146800] [147000] [147200] [147400] [147600] [147800] [148000] [148200] [148400] [148600] [148800] [149000] [149200] [149400] [149600] [149800] [150000] [150200] [150400] [150600] [150800] [151000] [151200] [151400] [151600] [151800] [152000] [152200] [152400] [152600] [152800] [153000] [153200] [153400] [153600] [153800] [154000] [154200] [154400] [154600] [154800] [155000] [155200] [155400] [155600] [155800] [156000] [156200] [156400] [156600] [156800] [157000] [157200] [157400] [157600] [157800] [158000] [158200] [158400] [158600] [158800] [159000] [159200] [159400] [159600] [159800] [160000] [160200] [160400] [160600] [160800] [161000] [161200] [161400] [161600] [161800] [162000] [162200] [162400] [162600] [162800] [163000] [163200] [163400] [163600] [163800] [164000] [164200] [164400] [164600]
 
  The service has been written by
Heinrich Stamerjohanns